Regional Weather Roundup
Issued by NWS

Home | Current Version | Previous Version | Graphics & Text | Print | Product List | Glossary On
Versions: 1 2 3 4 5 6 7 8 9 10 11 12 13 14 15 16 17 18 19 20 21 22 23 24 25 26 27
000
ASUS45 KSLC 011010
RWRUT

UTAH REGIONAL WEATHER ROUNDUP
NATIONAL WEATHER SERVICE SALT LAKE CITY UT
400 AM MDT SUN MAY 01 2016

UTZ001>011-023>025-011100-

NORTHERN UTAH

CITY           SKY/WX    TMP DP  RH WIND       PRES   REMARKS
BRIGHAM CITY   CLOUDY    49  22  34 E9G55     30.09R
HILL AFB       CLOUDY    45  25  45 E46G67    29.96F SQUALL
LOGAN          CLOUDY    47  27  45 E18G36    30.12R
OGDEN          CLOUDY    47  25  42 W12G26    30.03R
PROVO AIRPORT  CLOUDY    48  23  37 N5        30.01S
SALT LAKE CITY CLOUDY    50  23  34 E8G18     30.02R
VERNAL         CLOUDY    41  22  46 NE20      30.11S
WENDOVER       MOCLDY    46  36  66 N21G26    30.04S
HEBER CITY     CLOUDY    36  32  87 CALM      30.05S

$$

UTZ012>022-026-027-011100-

SOUTHERN/CENTRAL UTAH

CITY           SKY/WX    TMP DP  RH WIND       PRES   REMARKS
BLANDING       MOCLDY    41  30  64 NE6       29.96R
BRYCE CANYON   CLEAR     34  25  69 N16       29.95F WCI  24
CEDAR CITY     CLEAR     35  33  92 NE3       29.92S
DELTA          PTCLDY    43  28  56 NE10      29.95S
HANKSVILLE     PTCLDY    41  32  70 N6        29.98S
MILFORD        CLEAR     40  36  86 N10       29.93S WCI  33
MOAB/CYNLANDS  CLEAR     40  30  67 CALM      29.93F
PRICE          PTCLDY    39  21  48 NE22G35   30.03F WCI  29
ST GEORGE      CLOUDY    50  41  71 S3        29.88S
KANAB          CLEAR     43  36  75 N6        29.93R

$$

REGIONAL REPORTS     COLORADO/ARIZONA

CITY           SKY/WX    TMP DP  RH WIND       PRES   REMARKS
CRAIG, CO      CLOUDY    35  22  58 NE10      30.12S WCI  27
GRAND JUNCTION CLEAR     41  29  62 S6        29.97R
RIFLE          PTCLDY    37  27  67 CALM      30.03S
MONTROSE       CLOUDY    34  28  79 CALM      30.00R
CORTEZ         CLOUDY    37  33  85 N3        29.91R
PAGE, AZ       PTCLDY    48  39  71 NW3       29.86S
GRAND CANYON   CLOUDY    41  35  79 NE9       29.87F
KINGMAN        PTCLDY    47  43  86 CALM      29.84S
FLAGSTAFF      MIX PCPN  32  32 100 E7        29.85F WCI  26

$$

REGIONAL REPORTS    NEVADA/IDAHO/WYOMING

CITY           SKY/WX    TMP DP  RH WIND       PRES   REMARKS
LAS VEGAS, NV  MOCLDY    56  49  77 CALM      29.80S
ELY            PTCLDY    37  34  89 N21       30.00F WCI  26
ELKO           PTCLDY    44  35  70 NE13      30.05S
POCATELLO, ID  CLOUDY    40  34  79 NE7       30.15R
BURLEY         CLOUDY    44  38  79 NE9       30.09S
EVANSTON, WY   CLOUDY    32  24  72 E17       30.16R WCI  21
ROCK SPRINGS   CLOUDY    33  27  78 E18       30.20S WCI  22

$$




USA.gov is the U.S. government's official web portal to all federal, state and local government web resources and services.